TimeMST,TemperatureF,Dew PointF,Humidity,Sea Level PressureIn,VisibilityMPH,Wind Direction,Wind SpeedMPH,Gust SpeedMPH,PrecipitationIn,Events,Conditions,WindDirDegrees,DateUTC
12:53 AM,91.0,63.0,39,29.81,10.0,SW,10.4,-,N/A,,Clear,220,2013-07-11 07:53:00
1:53 AM,89.1,63.0,42,29.83,10.0,SW,4.6,-,N/A,,Clear,230,2013-07-11 08:53:00
2:53 AM,88.0,63.0,43,29.85,10.0,Variable,3.5,-,N/A,,Mostly Cloudy,0,2013-07-11 09:53:00
3:53 AM,87.1,66.9,51,29.85,10.0,SSE,6.9,-,N/A,,Clear,150,2013-07-11 10:53:00
4:53 AM,86.0,66.9,53,29.83,10.0,Calm,Calm,-,N/A,,Partly Cloudy,0,2013-07-11 11:53:00
5:53 AM,82.9,69.1,63,29.86,10.0,Variable,4.6,-,0.03,,Clear,0,2013-07-11 12:53:00
6:53 AM,82.0,69.1,65,29.88,10.0,WSW,4.6,-,N/A,,Mostly Cloudy,240,2013-07-11 13:53:00
7:53 AM,81.0,69.1,67,29.91,10.0,West,6.9,-,N/A,,Partly Cloudy,280,2013-07-11 14:53:00
8:53 AM,82.9,68.0,60,29.91,10.0,WNW,6.9,-,N/A,,Partly Cloudy,300,2013-07-11 15:53:00
9:53 AM,84.9,66.9,55,29.90,10.0,Calm,Calm,-,N/A,,Partly Cloudy,0,2013-07-11 16:53:00
10:53 AM,88.0,66.0,48,29.89,10.0,Variable,5.8,-,N/A,,Mostly Cloudy,0,2013-07-11 17:53:00
11:53 AM,91.0,66.0,44,29.87,10.0,Variable,5.8,-,N/A,,Scattered Clouds,0,2013-07-11 18:53:00
12:53 PM,93.0,64.9,39,29.85,10.0,Variable,4.6,-,N/A,,Scattered Clouds,0,2013-07-11 19:53:00
1:53 PM,93.9,64.9,38,29.83,10.0,WSW,9.2,-,N/A,,Partly Cloudy,250,2013-07-11 20:53:00
2:53 PM,93.9,64.0,37,29.81,10.0,SW,11.5,-,N/A,,Clear,220,2013-07-11 21:53:00
3:53 PM,93.9,64.9,38,29.79,10.0,Variable,6.9,-,N/A,,Clear,0,2013-07-11 22:53:00
4:53 PM,93.9,63.0,36,29.77,10.0,West,12.7,-,N/A,,Partly Cloudy,260,2013-07-11 23:53:00
5:53 PM,93.9,62.1,35,29.77,10.0,West,8.1,-,N/A,,Clear,260,2013-07-12 00:53:00
6:53 PM,93.0,60.1,33,29.78,10.0,West,6.9,-,N/A,,Clear,260,2013-07-12 01:53:00
7:53 PM,91.9,62.1,37,29.78,10.0,West,3.5,-,N/A,,Clear,270,2013-07-12 02:53:00
8:53 PM,91.9,62.1,37,29.78,10.0,SW,3.5,-,N/A,,Clear,230,2013-07-12 03:53:00
9:53 PM,91.9,62.1,37,29.78,10.0,Calm,Calm,-,N/A,,Clear,0,2013-07-12 04:53:00
10:53 PM,91.0,62.1,38,29.78,10.0,Calm,Calm,-,N/A,,Clear,0,2013-07-12 05:53:00
11:53 PM,90.0,63.0,40,29.78,10.0,Calm,Calm,-,N/A,,Clear,0,2013-07-12 06:53:00